Weather History for Wausau, WI

Change the Weather History Date:

Friday, March 14, 2014

  Actual Average Record
Temperature  
Mean Temperature 35 °F 29 °F  
Max Temperature 40 °F 38 °F 75 °F (2012)
Min Temperature 29 °F 20 °F -8 °F (1993)
Degree Days  
Heating Degree Days 30 36  
Month to date heating degree days 662 540  
Since 1 July heating degree days 7609 6676  
Cooling Degree Days 0 0  
Month to date cooling degree days 0 0  
Year to date cooling degree days 0 0  
Moisture  
Dew Point 29 °F    
Average Humidity 72    
Maximum Humidity 82    
Minimum Humidity 61    
Precipitation  
Precipitation T in 0.05 in 1.70 in (1913)
Month to date precipitation 0.08 0.70  
Year to date precipitation 3.02 2.64  
Snow  
Snow T in 0.30 in 7.10 in (1928)
Month to date snowfall 1.4 5.4  
Since 1 July snowfall 71.0 50.7  
Snow Depth 16.00 in    
Sea Level Pressure  
Sea Level Pressure 29.56 in    
Wind  
Wind Speed 12 mph (West)    
Max Wind Speed 24 mph    
Max Gust Speed 32 mph    
Visibility 10 miles    
Events      
T = Trace of Precipitation, MM = Missing Value Source: NWS Daily Summary

Daily Weather History Graph

Daily Weather History Graph

Search for Another Location

Airport:

Trip Planner

Search our weather history database for the weather conditions in past years. The results will help you decide how hot, cold, wet, or windy it might be!

Date:

Astronomy

Mar. 14, 2014 Rise Set
Actual Time 7:12 AM CDT 7:03 PM CDT
Civil Twilight 6:43 AM CDT 7:32 PM CDT
Nautical Twilight 6:09 AM CDT 8:06 PM CDT
Astronomical Twilight 5:34 AM CDT 8:41 PM CDT
Moon 5:22 PM CDT (3/14) 5:56 AM CDT (3/14)
Length of Visible Light 12h 48m
Length of Day
11h 50m
Waxing Gibbous, 96% of the Moon is Illuminated
Mar 14
Waxing Gibbous
Mar 16
Full
Mar 23
Last Quarter
Mar 30
New
Apr 7
First Quarter

Hourly Weather History & Observations

Time (CDT) Temp. Windchill Dew Point Humidity Pressure Visibility Wind Dir Wind Speed Gust Speed Precip Events Conditions
12:54 AM 36.0 °F 27.5 °F 30.9 °F 82% 29.57 in 10.0 mi SSW 12.7 mph - N/A   Clear
1:54 AM 37.0 °F 28.5 °F 30.9 °F 79% 29.53 in 10.0 mi SW 13.8 mph - N/A   Clear
2:54 AM 37.9 °F 30.0 °F 32.0 °F 79% 29.51 in 10.0 mi SW 12.7 mph - N/A   Clear
3:54 AM 37.0 °F 34.5 °F 30.9 °F 79% 29.48 in 10.0 mi Variable 3.5 mph - N/A   Clear
4:54 AM 36.0 °F - 30.0 °F 79% 29.46 in 10.0 mi Calm Calm - N/A   Clear
5:54 AM 35.1 °F 31.0 °F 30.0 °F 82% 29.45 in 10.0 mi South 4.6 mph - N/A   Clear
6:54 AM 36.0 °F 33.3 °F 30.0 °F 79% 29.45 in 10.0 mi SSW 3.5 mph - N/A   Clear
7:54 AM 36.0 °F - 30.0 °F 79% 29.46 in 10.0 mi Calm Calm - N/A   Clear
8:54 AM 37.0 °F 31.0 °F 30.9 °F 79% 29.46 in 10.0 mi WNW 8.1 mph - N/A   Mostly Cloudy
9:54 AM 37.9 °F 29.6 °F 32.0 °F 79% 29.47 in 10.0 mi WNW 13.8 mph 23.0 mph N/A   Mostly Cloudy
10:46 AM 37.9 °F 29.6 °F 32.0 °F 79% 29.44 in 10.0 mi West 13.8 mph 24.2 mph N/A   Overcast
10:54 AM 37.0 °F 28.9 °F 32.0 °F 82% 29.48 in 10.0 mi West 12.7 mph 21.9 mph N/A   Overcast
11:54 AM 37.9 °F 29.2 °F 30.9 °F 76% 29.49 in 10.0 mi WNW 15.0 mph - N/A   Overcast
12:54 PM 37.0 °F 26.4 °F 30.0 °F 76% 29.52 in 10.0 mi West 20.7 mph 28.8 mph N/A   Overcast
1:54 PM 37.0 °F 26.2 °F 28.9 °F 73% 29.53 in 10.0 mi West 21.9 mph 26.5 mph N/A   Overcast
2:54 PM 37.0 °F 28.9 °F 28.9 °F 73% 29.55 in 10.0 mi WNW 12.7 mph 23.0 mph N/A   Overcast
3:54 PM 37.0 °F 28.1 °F 30.0 °F 76% 29.57 in 10.0 mi WNW 15.0 mph 23.0 mph N/A   Overcast
4:24 PM 37.0 °F 28.9 °F 30.0 °F 76% 29.53 in 10.0 mi West 12.7 mph - N/A   Overcast
4:54 PM 39.0 °F 30.6 °F 30.0 °F 70% 29.58 in 10.0 mi West 15.0 mph - N/A   Scattered Clouds
5:54 PM 39.0 °F 31.8 °F 28.9 °F 67% 29.60 in 10.0 mi West 11.5 mph - N/A   Overcast
6:54 PM 39.0 °F 29.6 °F 28.0 °F 65% 29.62 in 10.0 mi West 18.4 mph 31.1 mph N/A   Overcast
7:54 PM 37.0 °F 27.0 °F 27.0 °F 67% 29.66 in 10.0 mi West 18.4 mph 27.6 mph N/A   Overcast
8:54 PM 36.0 °F 25.6 °F 25.0 °F 64% 29.70 in 10.0 mi NW 18.4 mph 28.8 mph N/A   Overcast
9:54 PM 34.0 °F 23.4 °F 21.9 °F 61% 29.75 in 10.0 mi WNW 17.3 mph - N/A   Overcast
10:42 PM 32.0 °F 21.2 °F 24.1 °F 73% 29.74 in 10.0 mi NW 16.1 mph 24.2 mph N/A   Overcast
10:54 PM 32.0 °F 23.0 °F 24.1 °F 73% 29.80 in 10.0 mi NNW 11.5 mph 21.9 mph N/A   Overcast
11:54 PM 30.0 °F 20.5 °F 23.0 °F 75% 29.82 in 10.0 mi NNW 11.5 mph 20.7 mph N/A   Overcast